Home   Weather   Santa Maria   Past weeks

Flag for Cabo Verde Past Weather in Santa Maria, Cabo Verde — Yesterday and Last 2 Weeks

Now
75 °F

Passing clouds.


Feels Like: 77 °F
Forecast: 75 / 83 °F
Wind: 3 mph from Northeast

Location: Sal

Current Time: Jul 26, 2017 at 2:00:13 am

Latest Report: Jul 26, 2017 at 1:00 am


Visibility: N/A

Pressure: 30.01 "Hg

Humidity: 74%

Dew Point: 66 °F

Location of Santa MariaLocation

Past Weather in Santa Maria — Graph

°F

Santa Maria Temperature Yesterday

Maximum temperature yesterday: 84 °F (at 11:00 am)
Minimum temperature yesterday: 77 °F (at 12:00 am)
Average temperature yesterday: 79 °F

High & Low Weather Summary for the Past Weeks

 TemperatureHumidityPressure
High88 °F (Jul 17, 1:00 pm)89% (Jul 16, 12:00 am)30.07 "Hg (Jul 16, 12:00 am)
Low73 °F (Jul 13, 4:00 am)48% (Jul 12, 1:00 pm)29.89 "Hg (Jul 15, 5:00 pm)
Average79 °F69%30.00 "Hg
* Reported Jul 11 12:00 am — Jul 26 12:00 am, Santa Maria. Weather by CustomWeather, © 2017

Note: Actual official high and low records may vary slightly from our data, if they occured in-between our weather recording intervals... More about our weather records

Advertising

Santa Maria Weather History for the Previous 24 Hours

Scroll right to see more
 ConditionsComfort  
Time TempWeatherWind HumidityBarometerVisibility
12:00 am
Wed, Jul 26
77 °FPassing clouds.6 mph69%30.01 "HgN/A
11:00 pm
Tue, Jul 25
77 °FPassing clouds.7 mph74%30.04 "HgN/A
10:00 pm77 °FPassing clouds.8 mph69%30.01 "HgN/A
9:00 pm77 °FPassing clouds.9 mph69%30.01 "HgN/A
8:00 pm77 °FPassing clouds.9 mph69%29.98 "HgN/A
7:00 pm79 °FPassing clouds.10 mph65%29.98 "HgN/A
6:00 pm81 °FPassing clouds.12 mph62%29.95 "HgN/A
5:00 pm79 °FPartly sunny.9 mph65%29.98 "HgN/A
4:00 pm82 °FPartly sunny.10 mph58%29.98 "HgN/A
3:00 pm82 °FPartly sunny.12 mph58%29.98 "HgN/A
2:00 pm82 °FPartly sunny.12 mph58%29.98 "HgN/A
1:00 pm82 °FPartly sunny.12 mph58%29.98 "HgN/A
12:00 pm84 °FPartly sunny.12 mph55%30.01 "HgN/A
11:00 am84 °FPartly sunny.10 mph55%30.01 "HgN/A
10:00 am81 °FPartly sunny.9 mph62%30.01 "HgN/A
9:00 am79 °FPartly sunny.9 mph65%30.04 "HgN/A
8:00 am77 °FPartly sunny.9 mph69%30.04 "HgN/A
7:00 am77 °FPartly sunny.7 mph69%30.01 "HgN/A
6:00 am77 °FPartly sunny.5 mph69%30.01 "HgN/A
5:00 am77 °FPartly sunny.6 mph69%30.01 "HgN/A
4:00 am77 °FPassing clouds.9 mph69%30.01 "HgN/A
3:00 am77 °FPassing clouds.9 mph69%30.01 "HgN/A
2:00 am77 °FPassing clouds.9 mph69%30.01 "HgN/A
Weather by CustomWeather, © 2017

See weather overviewHow to use our weather pages